owner,sensor,date,latitude,longitude,vertical_datum,sea_water_practical_salinity,qcFlag 
DISL,ioos:station:DISL:DISL:1,2009-02-01T00:00:00Z,30.2513,-88.0778,5.415,12.63,1111122 
DISL,ioos:station:DISL:DISL:1,2009-02-01T00:30:00Z,30.2513,-88.0778,5.387,12.56,1111122 
DISL,ioos:station:DISL:DISL:1,2009-02-01T01:00:00Z,30.2513,-88.0778,5.375,13.14,1111122 
DISL,ioos:station:DISL:DISL:1,2009-02-01T01:30:00Z,30.2513,-88.0778,5.427,13.3,1111122 
DISL,ioos:station:DISL:DISL:1,2009-02-01T02:00:00Z,30.2513,-88.0778,5.332,13.25,1111122 
DISL,ioos:station:DISL:DISL:1,2009-02-01T02:30:00Z,30.2513,-88.0778,5.317,13.5,1111122 
DISL,ioos:station:DISL:DISL:1,2009-02-01T03:00:00Z,30.2513,-88.0778,5.298,13.64,1111122 
DISL,ioos:station:DISL:DISL:1,2009-02-01T03:30:00Z,30.2513,-88.0778,5.272,13.93,1111122 
DISL,ioos:station:DISL:DISL:1,2009-02-01T04:00:00Z,30.2513,-88.0778,5.215,14.17,1111122 
DISL,ioos:station:DISL:DISL:1,2009-02-01T04:30:00Z,30.2513,-88.0778,5.173,14.48,1111122 
DISL,ioos:station:DISL:DISL:1,2009-02-01T05:00:00Z,30.2513,-88.0778,5.124,14.56,1111122 
DISL,ioos:station:DISL:DISL:1,2009-02-01T05:30:00Z,30.2513,-88.0778,5.127,14.37,1111122 
DISL,ioos:station:DISL:DISL:1,2009-02-01T06:00:00Z,30.2513,-88.0778,5.062,14.4,1111122 
DISL,ioos:station:DISL:DISL:1,2009-02-01T06:30:00Z,30.2513,-88.0778,5.064,14.92,1111122 
DISL,ioos:station:DISL:DISL:1,2009-02-01T07:00:00Z,30.2513,-88.0778,5.098,14.93,1111122 
DISL,ioos:station:DISL:DISL:1,2009-02-01T07:30:00Z,30.2513,-88.0778,5.072,15.05,1111122 
DISL,ioos:station:DISL:DISL:1,2009-02-01T08:00:00Z,30.2513,-88.0778,5.097,14.7,1111122 
DISL,ioos:station:DISL:DISL:1,2009-02-01T08:30:00Z,30.2513,-88.0778,5.123,14.87,1111122 
DISL,ioos:station:DISL:DISL:1,2009-02-01T09:00:00Z,30.2513,-88.0778,5.169,14.88,1111122 
DISL,ioos:station:DISL:DISL:1,2009-02-01T09:30:00Z,30.2513,-88.0778,5.163,15.2,1111122 
DISL,ioos:station:DISL:DISL:1,2009-02-01T10:00:00Z,30.2513,-88.0778,5.141,14.45,1111122 
DISL,ioos:station:DISL:DISL:1,2009-02-01T10:30:00Z,30.2513,-88.0778,5.167,13.87,1111122 
DISL,ioos:station:DISL:DISL:1,2009-02-01T11:00:00Z,30.2513,-88.0778,5.151,13.32,1111122 
DISL,ioos:station:DISL:DISL:1,2009-02-01T11:30:00Z,30.2513,-88.0778,5.206,13.86,1111122 
DISL,ioos:station:DISL:DISL:1,2009-02-01T12:00:00Z,30.2513,-88.0778,5.252,14.48,1111122 
DISL,ioos:station:DISL:DISL:1,2009-02-01T12:30:00Z,30.2513,-88.0778,5.273,14.74,1111122 
DISL,ioos:station:DISL:DISL:1,2009-02-01T13:00:00Z,30.2513,-88.0778,5.296,15.01,1111122 
DISL,ioos:station:DISL:DISL:1,2009-02-01T13:30:00Z,30.2513,-88.0778,5.345,15.04,1111122 
DISL,ioos:station:DISL:DISL:1,2009-02-01T14:00:00Z,30.2513,-88.0778,5.427,15.02,1111122 
DISL,ioos:station:DISL:DISL:1,2009-02-01T14:30:00Z,30.2513,-88.0778,5.479,15.04,1111122 
DISL,ioos:station:DISL:DISL:1,2009-02-01T15:00:00Z,30.2513,-88.0778,5.55,15.34,1111122 
DISL,ioos:station:DISL:DISL:1,2009-02-01T15:30:00Z,30.2513,-88.0778,5.606,19.85,1111122 
DISL,ioos:station:DISL:DISL:1,2009-02-01T16:00:00Z,30.2513,-88.0778,5.646,21.37,1111122 
DISL,ioos:station:DISL:DISL:1,2009-02-01T16:30:00Z,30.2513,-88.0778,5.691,23.45,1111122 
DISL,ioos:station:DISL:DISL:1,2009-02-01T17:00:00Z,30.2513,-88.0778,5.762,23.18,1111122 
DISL,ioos:station:DISL:DISL:1,2009-02-01T17:30:00Z,30.2513,-88.0778,5.784,24.47,1111122 
DISL,ioos:station:DISL:DISL:1,2009-02-01T18:00:00Z,30.2513,-88.0778,5.827,25.88,1111122 
DISL,ioos:station:DISL:DISL:1,2009-02-01T18:30:00Z,30.2513,-88.0778,5.904,25.51,1111122 
DISL,ioos:station:DISL:DISL:1,2009-02-01T19:00:00Z,30.2513,-88.0778,5.988,25.74,1111122 
DISL,ioos:station:DISL:DISL:1,2009-02-01T19:30:00Z,30.2513,-88.0778,6.09,25.76,1111122 
DISL,ioos:station:DISL:DISL:1,2009-02-01T20:00:00Z,30.2513,-88.0778,6.118,25.89,1111122 
DISL,ioos:station:DISL:DISL:1,2009-02-01T20:30:00Z,30.2513,-88.0778,6.137,26.84,1111122 
DISL,ioos:station:DISL:DISL:1,2009-02-01T21:00:00Z,30.2513,-88.0778,6.175,27.39,1111122 
DISL,ioos:station:DISL:DISL:1,2009-02-01T21:30:00Z,30.2513,-88.0778,6.22,27.65,1111122 
DISL,ioos:station:DISL:DISL:1,2009-02-01T22:00:00Z,30.2513,-88.0778,6.224,26.57,1111122 
DISL,ioos:station:DISL:DISL:1,2009-02-01T22:30:00Z,30.2513,-88.0778,6.153,24.51,1111122 
DISL,ioos:station:DISL:DISL:1,2009-02-01T23:00:00Z,30.2513,-88.0778,6.124,21.72,1111122 
DISL,ioos:station:DISL:DISL:1,2009-02-01T23:30:00Z,30.2513,-88.0778,6.1,19.77,1111122 
DISL,ioos:station:DISL:DISL:1,2009-02-02T00:00:00Z,30.2513,-88.0778,6.1,15.96,1111122 
DISL,ioos:station:DISL:DISL:1,2009-02-02T00:30:00Z,30.2513,-88.0778,6.04,15.33,1111122 
DISL,ioos:station:DISL:DISL:1,2009-02-02T01:00:00Z,30.2513,-88.0778,6.049,15.31,1111122 
DISL,ioos:station:DISL:DISL:1,2009-02-02T01:30:00Z,30.2513,-88.0778,6.002,15.37,1111122 
DISL,ioos:station:DISL:DISL:1,2009-02-02T02:00:00Z,30.2513,-88.0778,5.983,15.36,1111122 
DISL,ioos:station:DISL:DISL:1,2009-02-02T02:30:00Z,30.2513,-88.0778,5.921,15.48,1111122 
DISL,ioos:station:DISL:DISL:1,2009-02-02T03:00:00Z,30.2513,-88.0778,5.858,16.28,1111122 
DISL,ioos:station:DISL:DISL:1,2009-02-02T03:30:00Z,30.2513,-88.0778,5.824,16.06,1111122 
DISL,ioos:station:DISL:DISL:1,2009-02-02T04:00:00Z,30.2513,-88.0778,5.752,16.1,1111122 
DISL,ioos:station:DISL:DISL:1,2009-02-02T04:30:00Z,30.2513,-88.0778,5.782,15.99,1111122 
DISL,ioos:station:DISL:DISL:1,2009-02-02T05:00:00Z,30.2513,-88.0778,5.675,16.01,1111122 
DISL,ioos:station:DISL:DISL:1,2009-02-02T05:30:00Z,30.2513,-88.0778,5.654,15.81,1111122 
DISL,ioos:station:DISL:DISL:1,2009-02-02T06:00:00Z,30.2513,-88.0778,5.588,15.79,1111122 
DISL,ioos:station:DISL:DISL:1,2009-02-02T06:30:00Z,30.2513,-88.0778,5.54,15.71,1111122 
DISL,ioos:station:DISL:DISL:1,2009-02-02T07:00:00Z,30.2513,-88.0778,5.593,16.38,1111122 
DISL,ioos:station:DISL:DISL:1,2009-02-02T07:30:00Z,30.2513,-88.0778,5.535,17.38,1111122 
DISL,ioos:station:DISL:DISL:1,2009-02-02T08:00:00Z,30.2513,-88.0778,5.543,19.22,1111122 
DISL,ioos:station:DISL:DISL:1,2009-02-02T08:30:00Z,30.2513,-88.0778,5.581,19.3,1111122 
DISL,ioos:station:DISL:DISL:1,2009-02-02T09:00:00Z,30.2513,-88.0778,5.613,19.35,1111122 
DISL,ioos:station:DISL:DISL:1,2009-02-02T09:30:00Z,30.2513,-88.0778,5.711,18.39,1111122 
DISL,ioos:station:DISL:DISL:1,2009-02-02T10:00:00Z,30.2513,-88.0778,5.721,18.54,1111122 
DISL,ioos:station:DISL:DISL:1,2009-02-02T10:30:00Z,30.2513,-88.0778,5.813,18.25,1111122 
DISL,ioos:station:DISL:DISL:1,2009-02-02T11:00:00Z,30.2513,-88.0778,5.84,18.19,1111122 
DISL,ioos:station:DISL:DISL:1,2009-02-02T11:30:00Z,30.2513,-88.0778,5.889,18.25,1111122 
DISL,ioos:station:DISL:DISL:1,2009-02-02T12:00:00Z,30.2513,-88.0778,5.89,18.43,1111122 
DISL,ioos:station:DISL:DISL:1,2009-02-02T12:30:00Z,30.2513,-88.0778,5.992,18.09,1111122 
DISL,ioos:station:DISL:DISL:1,2009-02-02T13:00:00Z,30.2513,-88.0778,6.018,17.9,1111122 
DISL,ioos:station:DISL:DISL:1,2009-02-02T13:30:00Z,30.2513,-88.0778,6.027,18.11,1111122 
DISL,ioos:station:DISL:DISL:1,2009-02-02T14:00:00Z,30.2513,-88.0778,6.218,22.24,1111122 
DISL,ioos:station:DISL:DISL:1,2009-02-02T14:30:00Z,30.2513,-88.0778,6.199,24.47,1111122 
DISL,ioos:station:DISL:DISL:1,2009-02-02T15:00:00Z,30.2513,-88.0778,6.223,24.69,1111122 
DISL,ioos:station:DISL:DISL:1,2009-02-02T15:30:00Z,30.2513,-88.0778,6.332,24.29,1111122 
DISL,ioos:station:DISL:DISL:1,2009-02-02T16:00:00Z,30.2513,-88.0778,6.394,25.2,1111122 
DISL,ioos:station:DISL:DISL:1,2009-02-02T16:30:00Z,30.2513,-88.0778,6.482,25.29,1111122 
DISL,ioos:station:DISL:DISL:1,2009-02-02T17:00:00Z,30.2513,-88.0778,6.477,25.73,1111122 
DISL,ioos:station:DISL:DISL:1,2009-02-02T17:30:00Z,30.2513,-88.0778,6.638,23.96,1111122 
DISL,ioos:station:DISL:DISL:1,2009-02-02T18:00:00Z,30.2513,-88.0778,6.521,18.22,1111122 
DISL,ioos:station:DISL:DISL:1,2009-02-02T18:30:00Z,30.2513,-88.0778,6.499,18.08,1111122 
DISL,ioos:station:DISL:DISL:1,2009-02-02T19:00:00Z,30.2513,-88.0778,6.64,18.7,1111122 
DISL,ioos:station:DISL:DISL:1,2009-02-02T19:30:00Z,30.2513,-88.0778,6.638,22.61,1111122 
DISL,ioos:station:DISL:DISL:1,2009-02-02T20:00:00Z,30.2513,-88.0778,6.66,16.54,1111122 
DISL,ioos:station:DISL:DISL:1,2009-02-02T20:30:00Z,30.2513,-88.0778,6.65,16.73,1111122 
DISL,ioos:station:DISL:DISL:1,2009-02-02T21:00:00Z,30.2513,-88.0778,6.264,16.42,1111122 
DISL,ioos:station:DISL:DISL:1,2009-02-02T21:30:00Z,30.2513,-88.0778,6.467,16.09,1111122 
DISL,ioos:station:DISL:DISL:1,2009-02-02T22:00:00Z,30.2513,-88.0778,6.589,16.25,1111122 
DISL,ioos:station:DISL:DISL:1,2009-02-02T22:30:00Z,30.2513,-88.0778,6.335,16.33,1111122 
DISL,ioos:station:DISL:DISL:1,2009-02-02T23:00:00Z,30.2513,-88.0778,6.013,16.36,1111122 
DISL,ioos:station:DISL:DISL:1,2009-02-02T23:30:00Z,30.2513,-88.0778,6.857,16.27,1111122 
DISL,ioos:station:DISL:DISL:1,2009-02-03T00:00:00Z,30.2513,-88.0778,6.41,16.27,1111122 
DISL,ioos:station:DISL:DISL:1,2009-02-03T00:30:00Z,30.2513,-88.0778,6.735,15.93,1111122 
DISL,ioos:station:DISL:DISL:1,2009-02-03T01:00:00Z,30.2513,-88.0778,6.227,15.8,1111122 
DISL,ioos:station:DISL:DISL:1,2009-02-03T01:30:00Z,30.2513,-88.0778,5.816,15.82,1111122 
DISL,ioos:station:DISL:DISL:1,2009-02-03T02:00:00Z,30.2513,-88.0778,5.835,15.83,1111122 
DISL,ioos:station:DISL:DISL:1,2009-02-03T02:30:00Z,30.2513,-88.0778,5.713,15.84,1111122 
DISL,ioos:station:DISL:DISL:1,2009-02-03T03:00:00Z,30.2513,-88.0778,5.418,15.84,1111122 
DISL,ioos:station:DISL:DISL:1,2009-02-03T03:30:00Z,30.2513,-88.0778,5.285,15.85,1111122 
DISL,ioos:station:DISL:DISL:1,2009-02-03T04:00:00Z,30.2513,-88.0778,5.431,15.86,1111122 
DISL,ioos:station:DISL:DISL:1,2009-02-03T04:30:00Z,30.2513,-88.0778,5.38,15.85,1111122 
DISL,ioos:station:DISL:DISL:1,2009-02-03T05:00:00Z,30.2513,-88.0778,5.04,15.78,1111122 
DISL,ioos:station:DISL:DISL:1,2009-02-03T05:30:00Z,30.2513,-88.0778,4.947,15.79,1111122 
DISL,ioos:station:DISL:DISL:1,2009-02-03T06:00:00Z,30.2513,-88.0778,5.196,15.75,1111122 
DISL,ioos:station:DISL:DISL:1,2009-02-03T06:30:00Z,30.2513,-88.0778,5.103,15.93,1111122 
DISL,ioos:station:DISL:DISL:1,2009-02-03T07:00:00Z,30.2513,-88.0778,5.159,15.77,1111122 
DISL,ioos:station:DISL:DISL:1,2009-02-03T07:30:00Z,30.2513,-88.0778,4.859,15.75,1111122 
DISL,ioos:station:DISL:DISL:1,2009-02-03T08:00:00Z,30.2513,-88.0778,5.003,15.76,1111122 
DISL,ioos:station:DISL:DISL:1,2009-02-03T08:30:00Z,30.2513,-88.0778,5.02,16.2,1111122 
DISL,ioos:station:DISL:DISL:1,2009-02-03T09:00:00Z,30.2513,-88.0778,5.008,16.05,1111122 
DISL,ioos:station:DISL:DISL:1,2009-02-03T09:30:00Z,30.2513,-88.0778,5.103,16.32,1111122 
DISL,ioos:station:DISL:DISL:1,2009-02-03T10:00:00Z,30.2513,-88.0778,5.027,17.16,1111122 
DISL,ioos:station:DISL:DISL:1,2009-02-03T10:30:00Z,30.2513,-88.0778,5.1,16.78,1111122 
DISL,ioos:station:DISL:DISL:1,2009-02-03T11:00:00Z,30.2513,-88.0778,5.215,16.21,1111122 
DISL,ioos:station:DISL:DISL:1,2009-02-03T11:30:00Z,30.2513,-88.0778,5.236,16.22,1111122 
DISL,ioos:station:DISL:DISL:1,2009-02-03T12:00:00Z,30.2513,-88.0778,5.254,17.77,1111122 
DISL,ioos:station:DISL:DISL:1,2009-02-03T12:30:00Z,30.2513,-88.0778,5.283,19.17,1111122 
DISL,ioos:station:DISL:DISL:1,2009-02-03T13:00:00Z,30.2513,-88.0778,5.288,21.9,1111122 
DISL,ioos:station:DISL:DISL:1,2009-02-03T13:30:00Z,30.2513,-88.0778,5.36,20.48,1111122 
DISL,ioos:station:DISL:DISL:1,2009-02-03T14:00:00Z,30.2513,-88.0778,5.467,17.52,1111122 
DISL,ioos:station:DISL:DISL:1,2009-02-03T14:30:00Z,30.2513,-88.0778,5.529,17.22,1111122 
DISL,ioos:station:DISL:DISL:1,2009-02-03T15:00:00Z,30.2513,-88.0778,5.6,16.96,1111122 
DISL,ioos:station:DISL:DISL:1,2009-02-03T15:30:00Z,30.2513,-88.0778,5.674,17.1,1111122 
DISL,ioos:station:DISL:DISL:1,2009-02-03T16:00:00Z,30.2513,-88.0778,5.708,19.12,1111122 
DISL,ioos:station:DISL:DISL:1,2009-02-03T16:30:00Z,30.2513,-88.0778,5.829,19.0,1111122 
DISL,ioos:station:DISL:DISL:1,2009-02-03T17:00:00Z,30.2513,-88.0778,5.868,21.21,1111122 
DISL,ioos:station:DISL:DISL:1,2009-02-03T17:30:00Z,30.2513,-88.0778,5.969,25.0,1111122 
DISL,ioos:station:DISL:DISL:1,2009-02-03T18:00:00Z,30.2513,-88.0778,6.033,23.91,1111122 
DISL,ioos:station:DISL:DISL:1,2009-02-03T18:30:00Z,30.2513,-88.0778,6.129,23.66,1111122 
DISL,ioos:station:DISL:DISL:1,2009-02-03T19:00:00Z,30.2513,-88.0778,6.203,24.59,1111122 
DISL,ioos:station:DISL:DISL:1,2009-02-03T19:30:00Z,30.2513,-88.0778,6.227,21.96,1111122 
DISL,ioos:station:DISL:DISL:1,2009-02-03T20:00:00Z,30.2513,-88.0778,6.233,22.21,1111122 
DISL,ioos:station:DISL:DISL:1,2009-02-03T20:30:00Z,30.2513,-88.0778,6.294,24.39,1111122 
DISL,ioos:station:DISL:DISL:1,2009-02-03T21:00:00Z,30.2513,-88.0778,6.291,21.15,1111122 
DISL,ioos:station:DISL:DISL:1,2009-02-03T21:30:00Z,30.2513,-88.0778,6.317,18.3,1111122 
DISL,ioos:station:DISL:DISL:1,2009-02-03T22:00:00Z,30.2513,-88.0778,6.315,17.43,1111122 
DISL,ioos:station:DISL:DISL:1,2009-02-03T22:30:00Z,30.2513,-88.0778,6.29,16.84,1111122 
DISL,ioos:station:DISL:DISL:1,2009-02-03T23:00:00Z,30.2513,-88.0778,6.342,16.32,1111122 
DISL,ioos:station:DISL:DISL:1,2009-02-03T23:30:00Z,30.2513,-88.0778,6.341,16.34,1111122 
DISL,ioos:station:DISL:DISL:1,2009-02-04T00:00:00Z,30.2513,-88.0778,6.278,16.39,1111122 
DISL,ioos:station:DISL:DISL:1,2009-02-04T00:30:00Z,30.2513,-88.0778,6.276,16.41,1111122 
DISL,ioos:station:DISL:DISL:1,2009-02-04T01:00:00Z,30.2513,-88.0778,6.243,16.44,1111122 
DISL,ioos:station:DISL:DISL:1,2009-02-04T01:30:00Z,30.2513,-88.0778,6.121,16.48,1111122 
DISL,ioos:station:DISL:DISL:1,2009-02-04T02:00:00Z,30.2513,-88.0778,6.068,16.54,1111122 
DISL,ioos:station:DISL:DISL:1,2009-02-04T02:30:00Z,30.2513,-88.0778,5.96,16.57,1111122 
DISL,ioos:station:DISL:DISL:1,2009-02-04T03:00:00Z,30.2513,-88.0778,5.903,16.59,1111122 
DISL,ioos:station:DISL:DISL:1,2009-02-04T03:30:00Z,30.2513,-88.0778,5.832,17.17,1111122 
DISL,ioos:station:DISL:DISL:1,2009-02-04T04:00:00Z,30.2513,-88.0778,5.715,18.12,1111122 
DISL,ioos:station:DISL:DISL:1,2009-02-04T04:30:00Z,30.2513,-88.0778,5.676,18.11,1111122 
DISL,ioos:station:DISL:DISL:1,2009-02-04T05:00:00Z,30.2513,-88.0778,5.546,18.54,1111122 
DISL,ioos:station:DISL:DISL:1,2009-02-04T05:30:00Z,30.2513,-88.0778,5.196,18.76,1111122 
DISL,ioos:station:DISL:DISL:1,2009-02-04T06:00:00Z,30.2513,-88.0778,5.389,19.3,1111122 
DISL,ioos:station:DISL:DISL:1,2009-02-04T06:30:00Z,30.2513,-88.0778,5.13,19.33,1111122 
DISL,ioos:station:DISL:DISL:1,2009-02-04T07:00:00Z,30.2513,-88.0778,5.056,19.93,1111122 
DISL,ioos:station:DISL:DISL:1,2009-02-04T07:30:00Z,30.2513,-88.0778,5.304,19.74,1111122 
DISL,ioos:station:DISL:DISL:1,2009-02-04T08:00:00Z,30.2513,-88.0778,4.939,20.15,1111122 
DISL,ioos:station:DISL:DISL:1,2009-02-04T08:30:00Z,30.2513,-88.0778,4.681,20.14,1111122 
DISL,ioos:station:DISL:DISL:1,2009-02-04T09:00:00Z,30.2513,-88.0778,4.757,19.84,1111122 
DISL,ioos:station:DISL:DISL:1,2009-02-04T09:30:00Z,30.2513,-88.0778,4.528,20.03,1111122 
DISL,ioos:station:DISL:DISL:1,2009-02-04T10:00:00Z,30.2513,-88.0778,4.147,20.39,1111122 
DISL,ioos:station:DISL:DISL:1,2009-02-04T10:30:00Z,30.2513,-88.0778,4.929,20.21,1111122 
DISL,ioos:station:DISL:DISL:1,2009-02-04T11:00:00Z,30.2513,-88.0778,4.597,20.39,1111122 
DISL,ioos:station:DISL:DISL:1,2009-02-04T11:30:00Z,30.2513,-88.0778,4.538,20.3,1111122 
DISL,ioos:station:DISL:DISL:1,2009-02-04T12:00:00Z,30.2513,-88.0778,4.63,20.32,1111122 
DISL,ioos:station:DISL:DISL:1,2009-02-04T12:30:00Z,30.2513,-88.0778,4.455,20.44,1111122 
DISL,ioos:station:DISL:DISL:1,2009-02-04T13:00:00Z,30.2513,-88.0778,4.595,20.13,1111122 
DISL,ioos:station:DISL:DISL:1,2009-02-04T13:30:00Z,30.2513,-88.0778,4.283,19.71,1111122 
DISL,ioos:station:DISL:DISL:1,2009-02-04T14:00:00Z,30.2513,-88.0778,4.545,19.5,1111122 
DISL,ioos:station:DISL:DISL:1,2009-02-04T14:30:00Z,30.2513,-88.0778,4.701,19.23,1111122 
DISL,ioos:station:DISL:DISL:1,2009-02-04T15:00:00Z,30.2513,-88.0778,4.667,18.95,1111122 
DISL,ioos:station:DISL:DISL:1,2009-02-04T15:30:00Z,30.2513,-88.0778,4.74,18.83,1111122 
DISL,ioos:station:DISL:DISL:1,2009-02-04T16:00:00Z,30.2513,-88.0778,4.738,20.73,1111122 
DISL,ioos:station:DISL:DISL:1,2009-02-04T16:30:00Z,30.2513,-88.0778,4.74,22.3,1111122 
DISL,ioos:station:DISL:DISL:1,2009-02-04T17:00:00Z,30.2513,-88.0778,4.895,19.97,1111122 
DISL,ioos:station:DISL:DISL:1,2009-02-04T17:30:00Z,30.2513,-88.0778,5.012,19.58,1111122 
DISL,ioos:station:DISL:DISL:1,2009-02-04T18:00:00Z,30.2513,-88.0778,5.154,19.26,1111122 
DISL,ioos:station:DISL:DISL:1,2009-02-04T18:30:00Z,30.2513,-88.0778,5.246,18.3,1111122 
DISL,ioos:station:DISL:DISL:1,2009-02-04T19:00:00Z,30.2513,-88.0778,5.294,19.34,1111122 
DISL,ioos:station:DISL:DISL:1,2009-02-04T19:30:00Z,30.2513,-88.0778,5.399,19.62,1111122 
DISL,ioos:station:DISL:DISL:1,2009-02-04T20:00:00Z,30.2513,-88.0778,5.479,18.9,1111122 
DISL,ioos:station:DISL:DISL:1,2009-02-04T20:30:00Z,30.2513,-88.0778,5.615,19.22,1111122 
DISL,ioos:station:DISL:DISL:1,2009-02-04T21:00:00Z,30.2513,-88.0778,5.689,19.68,1111122 
DISL,ioos:station:DISL:DISL:1,2009-02-04T21:30:00Z,30.2513,-88.0778,5.699,20.87,1111122 
DISL,ioos:station:DISL:DISL:1,2009-02-04T22:00:00Z,30.2513,-88.0778,5.782,20.55,1111122 
DISL,ioos:station:DISL:DISL:1,2009-02-04T22:30:00Z,30.2513,-88.0778,5.819,21.26,1111122 
DISL,ioos:station:DISL:DISL:1,2009-02-04T23:00:00Z,30.2513,-88.0778,5.726,22.72,1111122 
DISL,ioos:station:DISL:DISL:1,2009-02-04T23:30:00Z,30.2513,-88.0778,5.847,21.83,1111122 
DISL,ioos:station:DISL:DISL:1,2009-02-05T00:00:00Z,30.2513,-88.0778,5.896,20.35,1111122 
DISL,ioos:station:DISL:DISL:1,2009-02-05T00:30:00Z,30.2513,-88.0778,5.848,19.38,1111122 
DISL,ioos:station:DISL:DISL:1,2009-02-05T01:00:00Z,30.2513,-88.0778,5.809,19.13,1111122 
DISL,ioos:station:DISL:DISL:1,2009-02-05T01:30:00Z,30.2513,-88.0778,5.745,19.09,1111122 
DISL,ioos:station:DISL:DISL:1,2009-02-05T02:00:00Z,30.2513,-88.0778,5.688,18.96,1111122 
DISL,ioos:station:DISL:DISL:1,2009-02-05T02:30:00Z,30.2513,-88.0778,5.619,18.91,1111122 
DISL,ioos:station:DISL:DISL:1,2009-02-05T03:00:00Z,30.2513,-88.0778,5.491,18.92,1111122 
DISL,ioos:station:DISL:DISL:1,2009-02-05T03:30:00Z,30.2513,-88.0778,5.433,18.84,1111122 
DISL,ioos:station:DISL:DISL:1,2009-02-05T04:00:00Z,30.2513,-88.0778,5.321,18.86,1111122 
DISL,ioos:station:DISL:DISL:1,2009-02-05T04:30:00Z,30.2513,-88.0778,5.212,18.38,1111122 
DISL,ioos:station:DISL:DISL:1,2009-02-05T05:00:00Z,30.2513,-88.0778,5.117,18.08,1111122 
DISL,ioos:station:DISL:DISL:1,2009-02-05T05:30:00Z,30.2513,-88.0778,5.013,18.05,1111122 
DISL,ioos:station:DISL:DISL:1,2009-02-05T06:00:00Z,30.2513,-88.0778,4.961,17.97,1111122 
DISL,ioos:station:DISL:DISL:1,2009-02-05T06:30:00Z,30.2513,-88.0778,4.817,17.85,1111122 
DISL,ioos:station:DISL:DISL:1,2009-02-05T07:00:00Z,30.2513,-88.0778,4.668,17.8,1111122 
DISL,ioos:station:DISL:DISL:1,2009-02-05T07:30:00Z,30.2513,-88.0778,4.74,17.9,1111122 
DISL,ioos:station:DISL:DISL:1,2009-02-05T08:00:00Z,30.2513,-88.0778,4.545,18.17,1111122 
DISL,ioos:station:DISL:DISL:1,2009-02-05T08:30:00Z,30.2513,-88.0778,4.49,18.33,1111122 
DISL,ioos:station:DISL:DISL:1,2009-02-05T09:00:00Z,30.2513,-88.0778,4.188,18.45,1111122 
DISL,ioos:station:DISL:DISL:1,2009-02-05T09:30:00Z,30.2513,-88.0778,4.268,18.55,1111122 
DISL,ioos:station:DISL:DISL:1,2009-02-05T10:00:00Z,30.2513,-88.0778,4.147,18.66,1111122 
DISL,ioos:station:DISL:DISL:1,2009-02-05T10:30:00Z,30.2513,-88.0778,4.124,19.25,1111122 
DISL,ioos:station:DISL:DISL:1,2009-02-05T11:00:00Z,30.2513,-88.0778,4.032,19.25,1111122 
DISL,ioos:station:DISL:DISL:1,2009-02-05T11:30:00Z,30.2513,-88.0778,4.009,19.17,1111122 
DISL,ioos:station:DISL:DISL:1,2009-02-05T12:00:00Z,30.2513,-88.0778,4.039,18.94,1111122 
DISL,ioos:station:DISL:DISL:1,2009-02-05T12:30:00Z,30.2513,-88.0778,4.114,18.89,1111122 
DISL,ioos:station:DISL:DISL:1,2009-02-05T13:00:00Z,30.2513,-88.0778,4.131,18.51,1111122 
DISL,ioos:station:DISL:DISL:1,2009-02-05T13:30:00Z,30.2513,-88.0778,4.169,18.22,1111122 
DISL,ioos:station:DISL:DISL:1,2009-02-05T14:00:00Z,30.2513,-88.0778,4.199,17.74,1111122 
DISL,ioos:station:DISL:DISL:1,2009-02-05T14:30:00Z,30.2513,-88.0778,4.229,17.61,1111122 
DISL,ioos:station:DISL:DISL:1,2009-02-05T15:00:00Z,30.2513,-88.0778,4.265,20.75,1111122 
DISL,ioos:station:DISL:DISL:1,2009-02-05T15:30:00Z,30.2513,-88.0778,4.275,21.3,1111122 
DISL,ioos:station:DISL:DISL:1,2009-02-05T16:00:00Z,30.2513,-88.0778,4.336,20.74,1111122 
DISL,ioos:station:DISL:DISL:1,2009-02-05T16:30:00Z,30.2513,-88.0778,4.391,20.52,1111122 
DISL,ioos:station:DISL:DISL:1,2009-02-05T17:00:00Z,30.2513,-88.0778,4.494,19.96,1111122 
DISL,ioos:station:DISL:DISL:1,2009-02-05T17:30:00Z,30.2513,-88.0778,4.609,18.97,1111122 
DISL,ioos:station:DISL:DISL:1,2009-02-05T18:00:00Z,30.2513,-88.0778,4.696,18.24,1111122 
DISL,ioos:station:DISL:DISL:1,2009-02-05T18:30:00Z,30.2513,-88.0778,4.871,18.2,1111122 
DISL,ioos:station:DISL:DISL:1,2009-02-05T19:00:00Z,30.2513,-88.0778,4.919,18.48,1111122 
DISL,ioos:station:DISL:DISL:1,2009-02-05T19:30:00Z,30.2513,-88.0778,5.061,19.82,1111122 
DISL,ioos:station:DISL:DISL:1,2009-02-05T20:00:00Z,30.2513,-88.0778,5.178,19.77,1111122 
DISL,ioos:station:DISL:DISL:1,2009-02-05T20:30:00Z,30.2513,-88.0778,5.323,20.02,1111122 
DISL,ioos:station:DISL:DISL:1,2009-02-05T21:00:00Z,30.2513,-88.0778,5.408,19.71,1111122 
DISL,ioos:station:DISL:DISL:1,2009-02-05T21:30:00Z,30.2513,-88.0778,5.556,18.7,1111122 
DISL,ioos:station:DISL:DISL:1,2009-02-05T22:00:00Z,30.2513,-88.0778,5.659,18.42,1111122 
DISL,ioos:station:DISL:DISL:1,2009-02-05T22:30:00Z,30.2513,-88.0778,5.756,18.53,1111122 
DISL,ioos:station:DISL:DISL:1,2009-02-05T23:00:00Z,30.2513,-88.0778,5.877,18.62,1111122 
DISL,ioos:station:DISL:DISL:1,2009-02-05T23:30:00Z,30.2513,-88.0778,5.953,18.7,1111122 
DISL,ioos:station:DISL:DISL:1,2009-02-06T00:00:00Z,30.2513,-88.0778,6.037,18.83,1111122 
DISL,ioos:station:DISL:DISL:1,2009-02-06T00:30:00Z,30.2513,-88.0778,6.086,19.12,1111122 
DISL,ioos:station:DISL:DISL:1,2009-02-06T01:00:00Z,30.2513,-88.0778,6.215,19.89,1111122 
DISL,ioos:station:DISL:DISL:1,2009-02-06T01:30:00Z,30.2513,-88.0778,6.173,20.82,1111122 
DISL,ioos:station:DISL:DISL:1,2009-02-06T02:00:00Z,30.2513,-88.0778,6.192,21.34,1111122 
DISL,ioos:station:DISL:DISL:1,2009-02-06T02:30:00Z,30.2513,-88.0778,6.172,19.7,1111122 
DISL,ioos:station:DISL:DISL:1,2009-02-06T03:00:00Z,30.2513,-88.0778,6.152,18.99,1111122 
DISL,ioos:station:DISL:DISL:1,2009-02-06T03:30:00Z,30.2513,-88.0778,6.034,18.84,1111122 
DISL,ioos:station:DISL:DISL:1,2009-02-06T04:00:00Z,30.2513,-88.0778,5.901,18.75,1111122 
DISL,ioos:station:DISL:DISL:1,2009-02-06T04:30:00Z,30.2513,-88.0778,5.852,18.75,1111122 
DISL,ioos:station:DISL:DISL:1,2009-02-06T05:00:00Z,30.2513,-88.0778,5.774,18.76,1111122 
DISL,ioos:station:DISL:DISL:1,2009-02-06T05:30:00Z,30.2513,-88.0778,5.624,18.76,1111122 
DISL,ioos:station:DISL:DISL:1,2009-02-06T06:00:00Z,30.2513,-88.0778,5.519,21.64,1111122 
DISL,ioos:station:DISL:DISL:1,2009-02-06T06:30:00Z,30.2513,-88.0778,5.433,22.76,1111122 
DISL,ioos:station:DISL:DISL:1,2009-02-06T07:00:00Z,30.2513,-88.0778,5.346,23.02,1111122 
DISL,ioos:station:DISL:DISL:1,2009-02-06T07:30:00Z,30.2513,-88.0778,5.259,23.27,1111122 
DISL,ioos:station:DISL:DISL:1,2009-02-06T08:00:00Z,30.2513,-88.0778,5.184,23.32,1111122 
DISL,ioos:station:DISL:DISL:1,2009-02-06T08:30:00Z,30.2513,-88.0778,5.072,23.29,1111122 
DISL,ioos:station:DISL:DISL:1,2009-02-06T09:00:00Z,30.2513,-88.0778,5.369,22.41,1111122 
DISL,ioos:station:DISL:DISL:1,2009-02-06T09:30:00Z,30.2513,-88.0778,4.845,19.83,1111122 
DISL,ioos:station:DISL:DISL:1,2009-02-06T10:00:00Z,30.2513,-88.0778,4.804,18.71,1111122 
DISL,ioos:station:DISL:DISL:1,2009-02-06T10:30:00Z,30.2513,-88.0778,4.699,18.57,1111122 
DISL,ioos:station:DISL:DISL:1,2009-02-06T11:00:00Z,30.2513,-88.0778,4.579,17.74,1111122 
DISL,ioos:station:DISL:DISL:1,2009-02-06T11:30:00Z,30.2513,-88.0778,4.545,15.32,1111122 
DISL,ioos:station:DISL:DISL:1,2009-02-06T12:00:00Z,30.2513,-88.0778,4.511,14.88,1111122 
DISL,ioos:station:DISL:DISL:1,2009-02-06T12:30:00Z,30.2513,-88.0778,4.511,15.73,1111122 
DISL,ioos:station:DISL:DISL:1,2009-02-06T13:00:00Z,30.2513,-88.0778,4.511,15.56,1111122 
DISL,ioos:station:DISL:DISL:1,2009-02-06T13:30:00Z,30.2513,-88.0778,4.52,15.79,1111122 
DISL,ioos:station:DISL:DISL:1,2009-02-06T14:00:00Z,30.2513,-88.0778,4.581,15.87,1111122 